• In Hungary
  • List of Countries
  • For 7 days
  • Water Temperature
  • Satellite Maps
  • Weather Map
  • News
  • Weather Widgets
  • user-avatar
    Login

    Hourly Weather Geel

    Today, 25 September, Tuesday

    Time Temperature Precipitation Wind Pressure Humidity
    00:00 +7°C° 0 mm 0 mps 776 mmHg 83%
    01:00 +7°C° 0 mm 0 mps 776 mmHg 83%
    02:00 +7°C° 0 mm 0 mps 776 mmHg 84%
    03:00 +7°C° 0 mm 0 mps 776 mmHg 85%
    04:00 +7°C° 0 mm 0 mps 776 mmHg 85%
    05:00 +7°C° 0 mm 0 mps 776 mmHg 86%
    06:00 +7°C° 0 mm 0 mps 777 mmHg 86%
    07:00 +9°C° 0 mm 0 mps 777 mmHg 79%
    08:00 +11°C° 0 mm 0 mps 777 mmHg 72%
    09:00 +13°C° 0 mm 0 mps 777 mmHg 64%
    10:00 +15°C° 0 mm 1 mps 777 mmHg 59%
    11:00 +16°C° 0 mm 1 mps 777 mmHg 55%
    12:00 +18°C° 0 mm 1 mps 777 mmHg 50%
    13:00 +18°C° 0 mm 1 mps 776 mmHg 49%
    14:00 +18°C° 0 mm 1 mps 776 mmHg 48%
    15:00 +18°C° 0 mm 1 mps 775 mmHg 47%
    16:00 +15°C° 0 mm 1 mps 775 mmHg 52%
    17:00 +14°C° 0 mm 1 mps 775 mmHg 57%
    18:00 +12°C° 0 mm 1 mps 775 mmHg 62%
    19:00 +12°C° 0 mm 1 mps 775 mmHg 63%
    20:00 +10°C° 0 mm 2 mps 775 mmHg 65%
    21:00 +10°C° 0 mm 2 mps 775 mmHg 66%
    22:00 +9°C° 0 mm 2 mps 775 mmHg 67%
    23:00 +9°C° 0 mm 2 mps 775 mmHg 68%

    Tomorrow, 26 September, Wednesday

    Time Temperature Precipitation Wind Pressure Humidity
    00:00 +8°C° 0 mm 2 mps 775 mmHg 69%
    01:00 +8°C° 0 mm 2 mps 775 mmHg 70%
    02:00 +8°C° 0 mm 2 mps 775 mmHg 70%
    03:00 +7°C° 0 mm 2 mps 774 mmHg 70%
    04:00 +7°C° 0 mm 2 mps 774 mmHg 70%
    05:00 +7°C° 0 mm 2 mps 774 mmHg 69%
    06:00 +7°C° 0 mm 2 mps 774 mmHg 68%
    07:00 +9°C° 0 mm 2 mps 774 mmHg 62%
    08:00 +12°C° 0 mm 2 mps 774 mmHg 55%
    09:00 +15°C° 0 mm 2 mps 774 mmHg 49%
    10:00 +16°C° 0 mm 2 mps 774 mmHg 45%
    11:00 +18°C° 0 mm 2 mps 773 mmHg 41%
    12:00 +20°C° 0 mm 1 mps 773 mmHg 36%
    13:00 +21°C° 0 mm 1 mps 773 mmHg 36%
    14:00 +21°C° 0 mm 1 mps 772 mmHg 37%
    15:00 +21°C° 0 mm 1 mps 772 mmHg 37%
    16:00 +19°C° 0 mm 1 mps 772 mmHg 41%
    17:00 +16°C° 0 mm 1 mps 772 mmHg 46%
    18:00 +14°C° 0 mm 1 mps 772 mmHg 51%
    19:00 +14°C° 0 mm 1 mps 772 mmHg 52%
    20:00 +13°C° 0 mm 1 mps 772 mmHg 53%
    21:00 +13°C° 0 mm 1 mps 772 mmHg 55%
    22:00 +12°C° 0 mm 1 mps 772 mmHg 56%
    23:00 +12°C° 0 mm 1 mps 772 mmHg 57%

    Day after tomorrow, 27 September, Thursday

    Time Temperature Precipitation Wind Pressure Humidity
    00:00 +12°C° 0 mm 1 mps 772 mmHg 58%
    01:00 +11°C° 0 mm 1 mps 772 mmHg 60%
    02:00 +11°C° 0 mm 1 mps 772 mmHg 61%
    03:00 +11°C° 0 mm 1 mps 772 mmHg 62%
    04:00 +11°C° 0 mm 1 mps 771 mmHg 63%
    05:00 +10°C° 0 mm 1 mps 771 mmHg 64%
    06:00 +10°C° 0 mm 1 mps 771 mmHg 65%
    07:00 +12°C° 0 mm 2 mps 771 mmHg 60%
    08:00 +15°C° 0 mm 2 mps 771 mmHg 55%
    09:00 +17°C° 0 mm 2 mps 771 mmHg 50%
    10:00 +18°C° 0 mm 2 mps 770 mmHg 47%
    11:00 +20°C° 0 mm 2 mps 770 mmHg 43%
    12:00 +21°C° 0 mm 2 mps 769 mmHg 40%
    13:00 +23°C° 0 mm 2 mps 768 mmHg 41%
    14:00 +22°C° 0 mm 3 mps 768 mmHg 42%
    15:00 +22°C° 0 mm 3 mps 767 mmHg 44%
    16:00 +20°C° 0 mm 2 mps 767 mmHg 50%
    17:00 +18°C° 0 mm 2 mps 767 mmHg 56%
    18:00 +16°C° 0 mm 2 mps 767 mmHg 62%
    19:00 +16°C° 0 mm 2 mps 767 mmHg 63%
    20:00 +15°C° 0 mm 2 mps 767 mmHg 65%
    21:00 +14°C° 0 mm 2 mps 767 mmHg 67%
    22:00 +14°C° 0 mm 2 mps 766 mmHg 69%
    23:00 +14°C° 0 mm 2 mps 766 mmHg 71%

    28 September, Friday

    Time Temperature Precipitation Wind Pressure Humidity
    00:00 +14°C° 0 mm 2 mps 766 mmHg 73%
    01:00 +13°C° 0 mm 2 mps 766 mmHg 76%
    02:00 +13°C° 0 mm 2 mps 766 mmHg 79%
    03:00 +13°C° 0 mm 1 mps 765 mmHg 82%
    04:00 +13°C° 0 mm 1 mps 766 mmHg 84%
    05:00 +13°C° 0 mm 1 mps 766 mmHg 86%
    06:00 +12°C° 0 mm 1 mps 766 mmHg 88%
    07:00 +14°C° 0 mm 1 mps 766 mmHg 81%
    08:00 +16°C° 0 mm 2 mps 767 mmHg 75%
    09:00 +17°C° 0 mm 3 mps 767 mmHg 69%
    10:00 +18°C° 0 mm 3 mps 767 mmHg 65%
    11:00 +19°C° 0 mm 3 mps 767 mmHg 62%
    12:00 +20°C° 0 mm 4 mps 767 mmHg 59%
    13:00 +19°C° 0 mm 4 mps 767 mmHg 60%
    14:00 +19°C° 0 mm 4 mps 767 mmHg 61%
    15:00 +17°C° 0 mm 5 mps 767 mmHg 63%
    16:00 +16°C° 0 mm 5 mps 767 mmHg 65%
    17:00 +15°C° 0 mm 4 mps 768 mmHg 68%
    18:00 +13°C° 0 mm 4 mps 768 mmHg 70%
    19:00 +12°C° 0 mm 4 mps 769 mmHg 70%
    20:00 +12°C° 0 mm 4 mps 769 mmHg 69%
    21:00 +11°C° 0 mm 4 mps 769 mmHg 69%
    22:00 +10°C° 0 mm 4 mps 770 mmHg 71%
    23:00 +8°C° 0 mm 4 mps 770 mmHg 72%

    29 September, Saturday

    Time Temperature Precipitation Wind Pressure Humidity
    00:00 +8°C° 0 mm 3 mps 770 mmHg 74%
    01:00 +8°C° 0 mm 3 mps 770 mmHg 78%
    02:00 +7°C° 0 mm 3 mps 770 mmHg 81%
    03:00 +7°C° 0 mm 3 mps 770 mmHg 84%
    04:00 +7°C° 0 mm 3 mps 770 mmHg 85%
    05:00 +5°C° 0 mm 3 mps 770 mmHg 87%
    06:00 +5°C° 0 mm 3 mps 770 mmHg 89%
    07:00 +8°C° 0 mm 3 mps 770 mmHg 80%
    08:00 +10°C° 0 mm 3 mps 770 mmHg 71%
    09:00 +12°C° 0 mm 4 mps 770 mmHg 63%
    10:00 +13°C° 0 mm 4 mps 770 mmHg 57%
    11:00 +14°C° 0 mm 4 mps 769 mmHg 52%
    12:00 +15°C° 0 mm 4 mps 769 mmHg 47%
    13:00 +15°C° 0 mm 4 mps 769 mmHg 47%
    14:00 +15°C° 0 mm 4 mps 768 mmHg 47%
    15:00 +15°C° 0 mm 4 mps 768 mmHg 47%
    16:00 +14°C° 0 mm 3 mps 768 mmHg 52%
    17:00 +12°C° 0 mm 3 mps 768 mmHg 57%
    18:00 +11°C° 0 mm 3 mps 768 mmHg 62%
    19:00 +10°C° 0 mm 2 mps 768 mmHg 64%
    20:00 +9°C° 0 mm 2 mps 768 mmHg 66%
    21:00 +9°C° 0 mm 2 mps 768 mmHg 68%
    22:00 +8°C° 0 mm 2 mps 768 mmHg 70%
    23:00 +8°C° 0 mm 2 mps 767 mmHg 71%

    30 September, Sunday

    Time Temperature Precipitation Wind Pressure Humidity
    00:00 +8°C° 0 mm 2 mps 767 mmHg 72%
    01:00 +8°C° 0 mm 1 mps 767 mmHg 74%
    02:00 +8°C° 0 mm 1 mps 767 mmHg 75%
    03:00 +7°C° 0 mm 1 mps 766 mmHg 76%
    04:00 +7°C° 0 mm 1 mps 767 mmHg 77%
    05:00 +7°C° 0 mm 1 mps 767 mmHg 78%
    06:00 +7°C° 0 mm 1 mps 767 mmHg 78%
    07:00 +9°C° 0 mm 1 mps 767 mmHg 71%
    08:00 +11°C° 0 mm 1 mps 767 mmHg 63%
    09:00 +13°C° 0 mm 1 mps 767 mmHg 56%
    10:00 +15°C° 0 mm 1 mps 767 mmHg 52%
    11:00 +16°C° 0 mm 2 mps 767 mmHg 49%
    12:00 +17°C° 0 mm 2 mps 767 mmHg 45%
    13:00 +17°C° 0 mm 3 mps 767 mmHg 46%
    14:00 +17°C° 0 mm 3 mps 767 mmHg 47%
    15:00 +17°C° 0 mm 3 mps 767 mmHg 48%
    16:00 +16°C° 0 mm 3 mps 767 mmHg 56%
    17:00 +13°C° 0 mm 3 mps 768 mmHg 63%
    18:00 +12°C° 0 mm 2 mps 768 mmHg 71%
    19:00 +12°C° 0 mm 2 mps 768 mmHg 75%
    20:00 +10°C° 0 mm 2 mps 769 mmHg 78%
    21:00 +10°C° 0 mm 2 mps 769 mmHg 81%
    22:00 +10°C° 0 mm 2 mps 769 mmHg 81%
    23:00 +11°C° 0 mm 1 mps 769 mmHg 81%
    Show more